When you browse on this site, cookies collect data to enhance your experience and personalize the content and advertising you see.
Visit our Privacy Policy to learn more. By continuing to use the site, you agree to this use of cookies and data.
  • En España
  • Lista de países
  • Para 7 días
  • Temperatura del agua
  • El tiempo en el mapa
  • Informadores
  • user-avatar
    Iniciar sesión

    Tiempo cada hora Babny

    Hoy, 24 Agosto, Sábado

    Tiempo Temperatura Precipitaciones Viento Presión Humedad
    00:00 +13°C° 0 mm 1 mps 755 mmHg 86%
    01:00 +13°C° 0 mm 1 mps 755 mmHg 87%
    02:00 +13°C° 0 mm 1 mps 755 mmHg 88%
    03:00 +13°C° 0 mm 1 mps 754 mmHg 90%
    04:00 +12°C° 0 mm 1 mps 754 mmHg 91%
    05:00 +12°C° 0 mm 2 mps 754 mmHg 92%
    06:00 +14°C° 0 mm 2 mps 754 mmHg 87%
    07:00 +16°C° 0 mm 2 mps 754 mmHg 82%
    08:00 +17°C° 0 mm 3 mps 754 mmHg 77%
    09:00 +19°C° 0 mm 3 mps 754 mmHg 72%
    10:00 +20°C° 0 mm 3 mps 754 mmHg 67%
    11:00 +22°C° 0 mm 4 mps 754 mmHg 63%
    12:00 +22°C° 0 mm 4 mps 753 mmHg 62%
    13:00 +22°C° 0 mm 4 mps 753 mmHg 61%
    14:00 +23°C° 0 mm 4 mps 753 mmHg 60%
    15:00 +23°C° 0 mm 4 mps 753 mmHg 64%
    16:00 +22°C° 0 mm 3 mps 753 mmHg 68%
    17:00 +22°C° 0 mm 3 mps 752 mmHg 72%
    18:00 +20°C° 0 mm 2 mps 753 mmHg 77%
    19:00 +19°C° 0 mm 2 mps 753 mmHg 82%
    20:00 +17°C° 0 mm 2 mps 753 mmHg 87%
    21:00 +17°C° 0 mm 2 mps 753 mmHg 89%
    22:00 +16°C° 0 mm 2 mps 753 mmHg 92%
    23:00 +15°C° 0 mm 1 mps 753 mmHg 94%

    Mañana, 25 Agosto, Domingo

    Tiempo Temperatura Precipitaciones Viento Presión Humedad
    00:00 +15°C° 0 mm 1 mps 753 mmHg 94%
    01:00 +14°C° 0 mm 1 mps 753 mmHg 94%
    02:00 +14°C° 0 mm 1 mps 754 mmHg 94%
    03:00 +13°C° 0 mm 1 mps 754 mmHg 95%
    04:00 +13°C° 0 mm 1 mps 754 mmHg 95%
    05:00 +13°C° 0 mm 1 mps 754 mmHg 95%
    06:00 +14°C° 0 mm 1 mps 754 mmHg 90%
    07:00 +16°C° 0 mm 1 mps 754 mmHg 85%
    08:00 +18°C° 0 mm 1 mps 755 mmHg 80%
    09:00 +18°C° 0 mm 2 mps 755 mmHg 73%
    10:00 +19°C° 0 mm 2 mps 755 mmHg 66%
    11:00 +21°C° 0 mm 2 mps 755 mmHg 59%
    12:00 +21°C° 0 mm 2 mps 755 mmHg 58%
    13:00 +21°C° 0 mm 2 mps 755 mmHg 56%
    14:00 +23°C° 0 mm 2 mps 755 mmHg 55%
    15:00 +21°C° 0 mm 2 mps 755 mmHg 59%
    16:00 +22°C° 0 mm 1 mps 755 mmHg 63%
    17:00 +22°C° 0 mm 1 mps 755 mmHg 67%
    18:00 +20°C° 0 mm 1 mps 755 mmHg 73%
    19:00 +18°C° 0 mm 1 mps 755 mmHg 78%
    20:00 +15°C° 0 mm 1 mps 755 mmHg 83%
    21:00 +14°C° 0 mm 1 mps 755 mmHg 85%
    22:00 +14°C° 0 mm 1 mps 755 mmHg 87%
    23:00 +13°C° 0 mm 1 mps 756 mmHg 89%

    Pasado mañana, 26 Agosto, Lunes

    Tiempo Temperatura Precipitaciones Viento Presión Humedad
    00:00 +13°C° 0 mm 1 mps 756 mmHg 90%
    01:00 +12°C° 0 mm 1 mps 756 mmHg 91%
    02:00 +12°C° 0 mm 1 mps 756 mmHg 92%
    03:00 +12°C° 0 mm 1 mps 755 mmHg 92%
    04:00 +12°C° 0 mm 1 mps 755 mmHg 93%
    05:00 +11°C° 0 mm 1 mps 755 mmHg 93%
    06:00 +12°C° 0 mm 0 mps 755 mmHg 88%
    07:00 +14°C° 0 mm 0 mps 755 mmHg 82%
    08:00 +16°C° 0 mm 0 mps 755 mmHg 77%
    09:00 +18°C° 0 mm 0 mps 755 mmHg 72%
    10:00 +19°C° 0 mm 0 mps 755 mmHg 66%
    11:00 +23°C° 0 mm 1 mps 755 mmHg 61%
    12:00 +23°C° 0 mm 1 mps 755 mmHg 59%
    13:00 +23°C° 0 mm 1 mps 754 mmHg 57%
    14:00 +23°C° 0 mm 2 mps 754 mmHg 55%
    15:00 +23°C° 0 mm 2 mps 754 mmHg 60%
    16:00 +23°C° 0 mm 1 mps 753 mmHg 64%
    17:00 +22°C° 0 mm 1 mps 753 mmHg 69%
    18:00 +20°C° 0 mm 1 mps 753 mmHg 73%
    19:00 +18°C° 0 mm 1 mps 753 mmHg 78%
    20:00 +16°C° 0 mm 1 mps 752 mmHg 82%
    21:00 +15°C° 0 mm 1 mps 752 mmHg 83%
    22:00 +15°C° 0 mm 1 mps 752 mmHg 84%
    23:00 +15°C° 0 mm 2 mps 752 mmHg 85%

    27 Agosto, Martes

    Tiempo Temperatura Precipitaciones Viento Presión Humedad
    00:00 +15°C° 0 mm 2 mps 752 mmHg 88%
    01:00 +15°C° 0 mm 2 mps 752 mmHg 91%
    02:00 +15°C° 0 mm 2 mps 752 mmHg 94%
    03:00 +14°C° 0 mm 2 mps 751 mmHg 94%
    04:00 +14°C° 0 mm 2 mps 751 mmHg 95%
    05:00 +14°C° 0 mm 2 mps 751 mmHg 96%
    06:00 +16°C° 0 mm 2 mps 751 mmHg 92%
    07:00 +17°C° 0 mm 3 mps 751 mmHg 88%
    08:00 +18°C° 0 mm 3 mps 751 mmHg 85%
    09:00 +19°C° 0 mm 3 mps 751 mmHg 78%
    10:00 +21°C° 0 mm 4 mps 751 mmHg 72%
    11:00 +22°C° 0 mm 4 mps 751 mmHg 65%
    12:00 +22°C° 0 mm 4 mps 751 mmHg 64%
    13:00 +22°C° 0 mm 4 mps 751 mmHg 63%
    14:00 +23°C° 0 mm 5 mps 751 mmHg 61%
    15:00 +22°C° 0 mm 4 mps 751 mmHg 63%
    16:00 +21°C° 0 mm 4 mps 751 mmHg 64%
    17:00 +20°C° 0 mm 3 mps 751 mmHg 65%
    18:00 +18°C° 0 mm 3 mps 751 mmHg 70%
    19:00 +17°C° 0 mm 3 mps 751 mmHg 74%
    20:00 +14°C° 0 mm 3 mps 751 mmHg 78%
    21:00 +13°C° 0 mm 3 mps 752 mmHg 81%
    22:00 +13°C° 0 mm 2 mps 752 mmHg 85%
    23:00 +13°C° 0 mm 2 mps 753 mmHg 88%

    28 Agosto, Miércoles

    Tiempo Temperatura Precipitaciones Viento Presión Humedad
    00:00 +12°C° 0 mm 2 mps 753 mmHg 90%
    01:00 +10°C° 0 mm 2 mps 753 mmHg 93%
    02:00 +10°C° 0 mm 2 mps 753 mmHg 95%
    03:00 +10°C° 0 mm 2 mps 753 mmHg 95%
    04:00 +10°C° 0 mm 1 mps 754 mmHg 95%
    05:00 +10°C° 0 mm 1 mps 754 mmHg 94%
    06:00 +11°C° 0 mm 1 mps 754 mmHg 86%
    07:00 +13°C° 0 mm 1 mps 754 mmHg 78%
    08:00 +14°C° 0 mm 2 mps 755 mmHg 70%
    09:00 +15°C° 0 mm 2 mps 755 mmHg 64%
    10:00 +17°C° 0 mm 2 mps 755 mmHg 58%
    11:00 +18°C° 0 mm 3 mps 755 mmHg 52%
    12:00 +18°C° 0 mm 3 mps 754 mmHg 51%
    13:00 +19°C° 0 mm 3 mps 754 mmHg 51%
    14:00 +19°C° 0 mm 3 mps 754 mmHg 50%
    15:00 +19°C° 0 mm 3 mps 754 mmHg 55%
    16:00 +19°C° 0 mm 2 mps 754 mmHg 59%
    17:00 +18°C° 0 mm 2 mps 754 mmHg 64%
    18:00 +16°C° 0 mm 2 mps 754 mmHg 68%
    19:00 +14°C° 0 mm 1 mps 754 mmHg 73%
    20:00 +12°C° 0 mm 1 mps 754 mmHg 78%
    21:00 +12°C° 0 mm 1 mps 754 mmHg 79%
    22:00 +11°C° 0 mm 1 mps 754 mmHg 80%
    23:00 +10°C° 0 mm 1 mps 754 mmHg 81%

    29 Agosto, Jueves

    Tiempo Temperatura Precipitaciones Viento Presión Humedad
    00:00 +10°C° 0 mm 1 mps 754 mmHg 79%
    01:00 +9°C° 0 mm 1 mps 754 mmHg 77%
    02:00 +9°C° 0 mm 1 mps 754 mmHg 75%
    03:00 +8°C° 0 mm 1 mps 754 mmHg 75%
    04:00 +8°C° 0 mm 1 mps 755 mmHg 75%
    05:00 +7°C° 0 mm 0 mps 755 mmHg 75%
    06:00 +8°C° 0 mm 0 mps 755 mmHg 70%
    07:00 +10°C° 0 mm 0 mps 755 mmHg 65%
    08:00 +12°C° 0 mm 0 mps 755 mmHg 61%
    09:00 +14°C° 0 mm 0 mps 755 mmHg 56%
    10:00 +18°C° 0 mm 1 mps 754 mmHg 52%
    11:00 +20°C° 0 mm 1 mps 754 mmHg 48%
    12:00 +20°C° 0 mm 1 mps 754 mmHg 49%
    13:00 +21°C° 0 mm 1 mps 754 mmHg 49%
    14:00 +21°C° 0 mm 1 mps 754 mmHg 50%
    15:00 +21°C° 0 mm 1 mps 754 mmHg 56%
    16:00 +21°C° 0 mm 1 mps 753 mmHg 61%
    17:00 +21°C° 0 mm 1 mps 753 mmHg 66%
    18:00 +19°C° 0 mm 1 mps 753 mmHg 72%
    19:00 +16°C° 0 mm 1 mps 753 mmHg 78%
    20:00 +14°C° 0 mm 1 mps 753 mmHg 83%
    21:00 +12°C° 0 mm 0 mps 753 mmHg 85%
    22:00 +12°C° 0 mm 0 mps 753 mmHg 87%
    23:00 +11°C° 0 mm 0 mps 753 mmHg 89%
    Mostrar más